Location: Lancaster
(54.0470°N, 2.8020°W)
Time: 22:38:43
(UTC+01:00)

COSMOS 2428 - Visible Passes

Search period start: 29 June 2016 00:00
Search period end: 09 July 2016 00:00
Orbit: 846 x 857 km, 70.9° (Epoch: 29 June)

Date Brightness Start Highest point End Pass type
(mag) Time Alt. Az. Time Alt. Az. Time Alt. Az.
29 Jun 4.8 23:14:45 10° WNW 23:18:35 19° W 23:22:25 10° SW visible
30 Jun 4.8 23:02:34 10° WNW 23:06:24 19° W 23:10:14 10° SW visible
01 Jul 4.9 22:50:23 10° WNW 22:54:13 19° W 22:58:03 10° SW visible
02 Jul 4.9 22:38:12 10° WNW 22:42:02 19° W 22:45:52 10° SW visible
